This demonstration page uses our WeatherBlox Daily Observations layout. Learn more.

Hourly Observations for October 20, 2019

Temp ( °F °C ) Dew Point ( °F °C ) Humidity (%) Winds ( mph kmh ) Pressure ( in mb ) Visibility ( mi km ) Precip ( " mm )
12:15 am 00:15 Clear 52 11 46 8 82 82 SSE 5 7 29.81 1009 10 16.0934 N/A
12:16 am 00:16 Clear 52 11 46 8 82 82 SSE 5 7 29.81 1009 10 16.0934 N/A
12:35 am 00:35 Partly Cloudy 50 10 46 8 88 88 Calm 29.82 1010 10 16.0934 N/A
12:36 am 00:36 Partly Cloudy 50 10 46 8 88 88 Calm 29.82 1010 10 16.0934 N/A
12:55 am 00:55 Partly Cloudy 50 10 46 8 88 88 S 3 6 29.82 1010 10 16.0934 N/A
1:15 am 01:15 Partly Cloudy 48 9 48 9 100 100 Calm 29.81 1010 10 16.0934 N/A
1:35 am 01:35 Clear 50 10 48 9 94 94 Calm 29.81 1009 10 16.0934 N/A
1:36 am 01:36 Clear 48 9 48 9 100 100 Calm 29.81 1010 10 16.0934 N/A
1:55 am 01:55 Clear 48 9 48 9 100 100 Calm 29.8 1009 10 16.0934 N/A
2:15 am 02:15 Clear 50 10 48 9 94 94 Calm 29.8 1009 10 16.0934 N/A
2:16 am 02:16 Clear 50 10 48 9 94 94 Calm 29.8 1009 10 16.0934 N/A
2:35 am 02:35 Clear 50 10 48 9 94 94 Calm 29.8 1009 10 16.0934 N/A
2:55 am 02:55 Clear 48 9 48 9 100 100 Calm 29.8 1009 10 16.0934 N/A
3:15 am 03:15 Clear 48 9 48 9 100 100 Calm 29.8 1009 10 16.0934 N/A
3:16 am 03:16 Clear 48 9 48 9 100 100 Calm 29.8 1009 10 16.0934 N/A
3:35 am 03:35 Partly Cloudy 50 10 50 10 100 100 Calm 29.8 1009 10 16.0934 N/A
3:36 am 03:36 Partly Cloudy 50 10 50 10 100 100 Calm 29.8 1009 10 16.0934 N/A
3:55 am 03:55 Clear 50 10 50 10 100 100 Calm 29.81 1009 10 16.0934 N/A
4:15 am 04:15 Clear 46 8 46 8 100 100 Calm 29.82 1010 10 16.0934 N/A
4:16 am 04:16 Clear 46 8 46 8 100 100 Calm 29.82 1010 10 16.0934 N/A
4:35 am 04:35 Partly Cloudy 48 9 48 9 100 100 Calm 29.82 1010 10 16.0934 N/A
4:55 am 04:55 Partly Cloudy 46 8 46 8 100 100 Calm 29.83 1010 10 16.0934 N/A
5:15 am 05:15 Clear 46 8 46 8 100 100 Calm 29.83 1010 10 16.0934 N/A
5:16 am 05:16 Clear 46 8 46 8 100 100 Calm 29.83 1010 10 16.0934 N/A
5:35 am 05:35 Clear 48 9 48 9 100 100 S 3 6 29.83 1010 10 16.0934 N/A
5:36 am 05:36 Clear 48 9 48 9 100 100 Calm 29.83 1010 10 16.0934 N/A
5:55 am 05:55 Clear 48 9 48 9 100 100 Calm 29.83 1010 10 16.0934 N/A
6:15 am 06:15 Clear 48 9 48 9 100 100 SSE 5 7 29.83 1010 10 16.0934 N/A
6:16 am 06:16 Clear 48 9 48 9 100 100 SSE 3 6 29.83 1010 10 16.0934 N/A
6:35 am 06:35 Clear 46 8 46 8 100 100 SE 3 6 29.85 1011 10 16.0934 N/A
6:36 am 06:36 Clear 46 8 46 8 100 100 SE 3 6 29.85 1011 10 16.0934 N/A
6:55 am 06:55 Clear 46 8 46 8 100 100 SW 3 6 29.86 1011 10 16.0934 N/A
7:15 am 07:15 Mostly Cloudy 46 8 46 8 100 100 Calm 29.87 1011 10 16.0934 N/A
7:35 am 07:35 Cloudy 46 8 46 8 100 100 Calm 29.87 1011 10 16.0934 N/A
7:36 am 07:36 Cloudy 46 8 46 8 100 100 Calm 29.87 1011 10 16.0934 N/A
7:55 am 07:55 Cloudy 48 9 48 9 100 100 Calm 29.87 1012 10 16.0934 N/A
8:15 am 08:15 Mostly Cloudy 48 9 48 9 100 100 Calm 29.86 1011 10 16.0934 N/A
8:16 am 08:16 Mostly Cloudy 48 9 48 9 100 100 Calm 29.87 1012 10 16.0934 N/A
8:35 am 08:35 Mostly Cloudy 48 9 48 9 100 100 SSE 3 6 29.87 1012 10 16.0934 N/A
8:55 am 08:55 Mostly Cloudy 50 10 50 10 100 100 Calm 29.88 1012 10 16.0934 N/A
9:15 am 09:15 Mostly Cloudy 54 12 54 12 100 100 Calm 29.88 1012 10 16.0934 N/A
9:16 am 09:16 Mostly Cloudy 54 12 54 12 100 100 Calm 29.88 1012 10 16.0934 N/A
9:35 am 09:35 Mostly Cloudy 55 13 55 13 100 100 WSW 3 6 29.89 1012 10 16.0934 N/A
9:55 am 09:55 Cloudy 57 14 54 12 88 88 W 3 6 29.89 1012 10 16.0934 N/A
10:15 am 10:15 Cloudy 59 15 54 12 82 82 W 3 6 29.88 1012 10 16.0934 N/A
10:35 am 10:35 Mostly Cloudy 61 16 54 12 77 77 WNW 3 6 29.89 1012 10 16.0934 N/A
10:36 am 10:36 Mostly Cloudy 61 16 54 12 77 77 WNW 5 7 29.89 1012 10 16.0934 N/A
10:55 am 10:55 Mostly Cloudy 61 16 52 11 72 72 N 3 6 29.89 1012 10 16.0934 N/A
11:15 am 11:15 Mostly Cloudy 63 17 52 11 68 68 NE 3 6 29.89 1012 10 16.0934 N/A
11:16 am 11:16 Mostly Cloudy 63 17 52 11 68 68 Calm 29.89 1012 10 16.0934 N/A
11:35 am 11:35 Partly Cloudy 63 17 52 11 68 68 Calm 29.89 1012 10 16.0934 N/A
11:36 am 11:36 Partly Cloudy 63 17 52 11 68 68 Calm 29.9 1012 10 16.0934 N/A
11:55 am 11:55 Sunny 66 19 50 10 56 56 ENE 3 6 29.89 1012 10 16.0934 N/A
12:15 pm 12:15 Sunny 66 19 48 9 52 52 Calm 29.89 1012 10 16.0934 N/A
12:16 pm 12:16 Sunny 66 19 48 9 52 52 Calm 29.89 1012 10 16.0934 N/A
12:35 pm 12:35 Sunny 68 20 50 10 53 53 WNW 5 7 29.89 1012 10 16.0934 N/A
12:36 pm 12:36 Sunny 68 20 50 10 53 53 WNW 5 7 29.89 1012 10 16.0934 N/A
12:55 pm 12:55 Sunny 68 20 50 10 53 53 NW 5 7 29.89 1012 10 16.0934 N/A
12:56 pm 12:56 Sunny 68 20 50 10 53 53 NW 3 6 29.89 1012 10 16.0934 N/A
1:15 pm 13:15 Sunny 68 20 50 10 53 53 Calm 29.89 1012 10 16.0934 N/A
1:16 pm 13:16 Sunny 68 20 50 10 53 53 WNW 5 7 29.89 1012 10 16.0934 N/A
1:35 pm 13:35 Sunny 70 21 50 10 50 50 E 3 6 29.88 1012 10 16.0934 N/A
1:55 pm 13:55 Sunny 70 21 52 11 53 53 W 3 6 29.88 1012 7 11.26538 N/A
1:56 pm 13:56 Sunny 70 21 52 11 53 53 W 3 6 29.88 1012 7 11.26538 N/A
2:15 pm 14:15 Sunny 70 21 52 11 53 53 Calm 29.87 1011 10 16.0934 N/A
2:16 pm 14:16 Sunny 70 21 52 11 53 53 Calm 29.87 1011 10 16.0934 N/A
2:35 pm 14:35 Sunny 72 22 52 11 50 50 WNW 8 13 29.86 1011 10 16.0934 N/A
2:36 pm 14:36 Sunny 72 22 52 11 50 50 WNW 7 11 29.86 1011 10 16.0934 N/A
2:55 pm 14:55 Sunny 72 22 52 11 50 50 Calm 29.86 1011 10 16.0934 N/A
2:56 pm 14:56 Sunny 72 22 52 11 50 50 Calm 29.86 1011 10 16.0934 N/A
3:15 pm 15:15 Partly Cloudy 72 22 54 12 53 53 WNW 5 7 29.85 1011 10 16.0934 N/A
3:16 pm 15:16 Partly Cloudy 72 22 54 12 53 53 WNW 3 6 29.85 1011 10 16.0934 N/A
3:35 pm 15:35 Sunny 72 22 52 11 50 50 S 3 6 29.85 1011 10 16.0934 N/A
3:55 pm 15:55 Sunny 72 22 52 11 50 50 Calm 29.85 1011 10 16.0934 N/A
3:56 pm 15:56 Sunny 72 22 52 11 50 50 Calm 29.85 1011 10 16.0934 N/A
4:15 pm 16:15 Sunny 73 23 54 12 50 50 WSW 7 11 29.85 1011 10 16.0934 N/A
4:35 pm 16:35 Sunny 73 23 54 12 50 50 W 3 6 29.85 1011 10 16.0934 N/A
4:55 pm 16:55 Sunny 72 22 54 12 53 53 Calm 29.86 1011 10 16.0934 N/A
4:56 pm 16:56 Sunny 72 22 54 12 53 53 Calm 29.86 1011 10 16.0934 N/A
5:15 pm 17:15 Sunny 72 22 54 12 53 53 SW 5 7 29.86 1011 10 16.0934 N/A
5:35 pm 17:35 Sunny 72 22 54 12 53 53 WSW 5 7 29.85 1011 10 16.0934 N/A
5:36 pm 17:36 Sunny 72 22 54 12 53 53 WSW 6 9 29.85 1011 10 16.0934 N/A
5:55 pm 17:55 Sunny 72 22 54 12 53 53 SW 3 6 29.86 1011 10 16.0934 N/A
6:15 pm 18:15 Sunny 70 21 54 12 57 57 SW 3 6 29.87 1011 10 16.0934 N/A
6:35 pm 18:35 Sunny 68 20 54 12 60 60 Calm 29.87 1011 10 16.0934 N/A
6:55 pm 18:55 Sunny 64 18 52 11 64 64 Calm 29.88 1012 10 16.0934 N/A
7:15 pm 19:15 Clear 59 15 52 11 77 77 Calm 29.89 1012 10 16.0934 N/A
7:35 pm 19:35 Clear 55 13 50 10 82 82 Calm 29.91 1013 10 16.0934 N/A
7:55 pm 19:55 Clear 55 13 50 10 82 82 Calm 29.92 1013 10 16.0934 N/A
8:15 pm 20:15 Mostly Cloudy 54 12 50 10 88 88 Calm 29.92 1013 10 16.0934 N/A
8:35 pm 20:35 Mostly Cloudy 54 12 50 10 88 88 ENE 3 6 29.92 1013 10 16.0934 N/A
8:36 pm 20:36 Mostly Cloudy 54 12 50 10 88 88 ENE 3 6 29.92 1013 10 16.0934 N/A
8:55 pm 20:55 Partly Cloudy 54 12 52 11 94 94 Calm 29.92 1013 10 16.0934 N/A
9:15 pm 21:15 Clear 52 11 50 10 94 94 E 5 7 29.93 1013 10 16.0934 N/A
9:35 pm 21:35 Clear 52 11 50 10 94 94 ESE 3 6 29.93 1013 10 16.0934 N/A
9:55 pm 21:55 Clear 52 11 50 10 94 94 ESE 3 6 29.93 1013 10 16.0934 N/A
10:15 pm 22:15 Partly Cloudy 50 10 50 10 100 100 ESE 3 6 29.93 1014 10 16.0934 N/A
10:35 pm 22:35 Partly Cloudy 52 11 50 10 94 94 Calm 29.94 1014 10 16.0934 N/A
10:55 pm 22:55 Partly Cloudy 50 10 50 10 100 100 Calm 29.94 1014 10 16.0934 N/A
11:15 pm 23:15 Mostly Cloudy 52 11 52 11 100 100 Calm 29.94 1014 10 16.0934 N/A

Powered by AerisWeather